Milan, NH

1:04 AM EST on February 23, 2017 (GMT -0500)
Berlin Municipal

Weather History for KBML - January, 2003

Change the Weather History Date:

Saturday, January 4, 2003

  Actual Average Record
Temperature  
Mean Temperature 21 °F -  
Max Temperature 24 °F 24 °F 48 °F (2000)
Min Temperature 17 °F 4 °F -25 °F (2014)
Degree Days  
Heating Degree Days 44    
Moisture  
Dew Point 19 °F    
Average Humidity 91    
Maximum Humidity 100    
Minimum Humidity 80    
Precipitation  
Precipitation 0.00 in - - ()
Sea Level Pressure  
Sea Level Pressure 29.84 in    
Wind  
Wind Speed 5 mph (North)    
Max Wind Speed 12 mph    
Max Gust Speed 16 mph    
Visibility 2 miles    
Events Fog , Snow    
Averages and records for this station are not official NWS values.
T = Trace of Precipitation, MM = Missing Value Source: NWS Daily Summary

Daily Weather History Graph

Daily Weather History Graph

Search for Another Location

Airport or City:

Trip Planner

Search our weather history database for the weather conditions in past years. The results will help you decide how hot, cold, wet, or windy it might be!

Date:

Astronomy

Jan. 04, 2003 Rise Set
Actual Time 7:21 AM EST 4:17 PM EST
Civil Twilight 6:48 AM EST 4:51 PM EST
Nautical Twilight 6:11 AM EST 5:27 PM EST
Astronomical Twilight 5:36 AM EST 6:03 PM EST
Moon 9:07 AM EST (1/4) 6:11 PM EST (1/4)
Length of Visible Light 10h 02m
Length of Day
8h 56m
Waxing Crescent, 4% of the Moon is Illuminated
Jan 4
Waxing Crescent
Jan 10
First Quarter
Jan 18
Full
Jan 25
Last Quarter
Feb 1
New

Hourly Weather History & Observations

Time (EST) Temp. Windchill Dew Point Humidity Pressure Visibility Wind Dir Wind Speed Gust Speed Precip Events Conditions
12:00 AM 21.2 °F - 17.6 °F 86% 29.99 in 2.5 mi Calm Calm - 0.00 in Snow Light Snow
12:08 AM 21.2 °F - 17.6 °F 86% 29.99 in 2.5 mi Calm Calm - 0.00 in Snow Light Snow
12:17 AM 21.2 °F - 17.6 °F 86% 29.99 in 1.8 mi Calm Calm - 0.00 in Snow Light Snow
12:36 AM 21.2 °F 14.9 °F 17.6 °F 86% 29.97 in 3.0 mi NNW 4.6 mph - 0.00 in Snow Light Snow
12:40 AM 21.2 °F 16.4 °F 17.6 °F 86% 29.97 in 2.5 mi Variable 3.5 mph - 0.00 in Snow Light Snow
12:52 AM 21.0 °F - 17.1 °F 85% 30.03 in 2.0 mi Calm Calm - 0.00 in Snow Light Snow
1:12 AM 21.2 °F 13.6 °F 17.6 °F 86% 29.95 in 3.0 mi Variable 5.8 mph - 0.00 in Snow Light Snow
1:25 AM 21.2 °F 13.6 °F 15.8 °F 80% 29.95 in 8.0 mi NNW 5.8 mph 16.1 mph 0.00 in Snow Light Snow
1:52 AM 23.0 °F 15.8 °F 18.0 °F 81% 30.00 in 9.0 mi Variable 5.8 mph - 0.00 in   Overcast
2:22 AM 21.2 °F 16.4 °F 19.4 °F 93% 29.94 in 1.8 mi South 3.5 mph - 0.00 in Snow Light Snow
2:38 AM 21.2 °F - 19.4 °F 93% 29.93 in 3.0 mi Calm Calm - 0.00 in Snow Light Snow
2:52 AM 21.9 °F 13.4 °F 19.9 °F 92% 29.98 in 6.0 mi East 6.9 mph - 0.00 in Snow Light Snow
3:18 AM 21.2 °F 10.1 °F 17.6 °F 86% 29.91 in 2.5 mi East 10.4 mph - 0.00 in Snow Light Snow
3:28 AM 21.2 °F 11.7 °F 17.6 °F 86% 29.91 in 1.8 mi East 8.1 mph - 0.00 in Snow Light Snow
3:40 AM 21.2 °F 12.6 °F 17.6 °F 86% 29.90 in 1.2 mi East 6.9 mph - 0.00 in Snow Light Snow
3:52 AM 21.0 °F 14.6 °F 19.0 °F 92% 29.94 in 1.0 mi NNE 4.6 mph - 0.00 in Snow Light Snow
4:01 AM 21.2 °F 14.9 °F 19.4 °F 93% 29.88 in 0.8 mi Variable 4.6 mph - 0.00 in Snow Light Snow
4:10 AM 21.2 °F 14.9 °F 19.4 °F 93% 29.88 in 0.8 mi NW 4.6 mph - 0.00 in Snow Light Snow
4:52 AM 21.0 °F 14.6 °F 19.9 °F 96% 29.92 in 0.5 mi NNW 4.6 mph - 0.00 in Fog , Snow Snow
5:21 AM 19.4 °F 9.5 °F 19.4 °F 100% 29.84 in 0.2 mi North 8.1 mph - 0.00 in Fog , Snow Heavy Snow
5:38 AM 21.2 °F 11.7 °F 19.4 °F 93% 29.83 in 0.5 mi NNE 8.1 mph - 0.00 in Fog , Snow Snow
5:52 AM 21.0 °F 12.4 °F 19.9 °F 96% 29.88 in 0.8 mi North 6.9 mph - 0.00 in Snow Light Snow
6:14 AM 21.2 °F 13.6 °F 19.4 °F 93% 29.82 in 1.2 mi NE 5.8 mph - 0.00 in Snow Light Snow
6:28 AM 21.2 °F 12.6 °F 19.4 °F 93% 29.81 in 1.8 mi NNE 6.9 mph - 0.00 in Snow Light Snow
6:35 AM 21.2 °F 10.1 °F 19.4 °F 93% 29.81 in 2.5 mi NNE 10.4 mph - 0.00 in Snow Light Snow
6:39 AM 21.2 °F 13.6 °F 19.4 °F 93% 29.81 in 3.0 mi NE 5.8 mph - 0.00 in Snow Light Snow
6:52 AM 21.9 °F 14.5 °F 19.0 °F 89% 29.88 in 1.5 mi North 5.8 mph - 0.00 in Snow Light Snow
7:00 AM 21.2 °F 12.6 °F 19.4 °F 93% 29.82 in 1.0 mi North 6.9 mph - 0.00 in Snow Light Snow
7:07 AM 21.2 °F 12.6 °F 19.4 °F 93% 29.82 in 0.8 mi North 6.9 mph - 0.00 in Snow Light Snow
7:16 AM 21.2 °F 11.7 °F 19.4 °F 93% 29.82 in 1.5 mi North 8.1 mph - 0.00 in Snow Light Snow
7:21 AM 21.2 °F 12.6 °F 19.4 °F 93% 29.82 in 3.0 mi North 6.9 mph - 0.00 in Snow Light Snow
7:52 AM 21.9 °F 14.5 °F 19.0 °F 89% 29.89 in 5.0 mi North 5.8 mph - 0.00 in Snow Light Snow
8:29 AM 21.2 °F 14.9 °F 19.4 °F 93% 29.83 in 2.5 mi Variable 4.6 mph - 0.00 in Snow Light Snow
8:34 AM 21.2 °F 16.4 °F 19.4 °F 93% 29.83 in 1.8 mi Variable 3.5 mph - 0.00 in Snow Light Snow
8:40 AM 21.2 °F 14.9 °F 19.4 °F 93% 29.83 in 1.0 mi NW 4.6 mph - 0.00 in Snow Light Snow
8:52 AM 21.0 °F 13.4 °F 19.9 °F 96% 29.90 in 1.0 mi NNW 5.8 mph - 0.00 in Snow Light Snow
9:03 AM 21.2 °F 14.9 °F 19.4 °F 93% 29.83 in 2.0 mi Variable 4.6 mph - 0.00 in Snow Light Snow
9:11 AM 21.2 °F 16.4 °F 19.4 °F 93% 29.83 in 1.5 mi Variable 3.5 mph - 0.00 in Snow Light Snow
9:18 AM 21.2 °F 14.9 °F 19.4 °F 93% 29.83 in 0.8 mi Variable 4.6 mph - 0.00 in Snow Light Snow
9:30 AM 21.2 °F 16.4 °F 21.2 °F 100% 29.83 in 0.5 mi Variable 3.5 mph - 0.00 in Fog , Snow Snow
9:52 AM 21.9 °F 17.2 °F 21.0 °F 96% 29.88 in 0.5 mi NW 3.5 mph - 0.00 in Fog , Snow Snow
10:52 AM 23.0 °F 15.8 °F 21.0 °F 92% 29.84 in 0.8 mi Variable 5.8 mph - 0.00 in Snow Light Snow
11:12 AM 24.8 °F 14.6 °F 21.2 °F 86% 29.76 in 1.0 mi NNE 10.4 mph 16.1 mph 0.00 in Snow Light Snow
11:21 AM 24.8 °F 15.3 °F 21.2 °F 86% 29.75 in 1.2 mi NNE 9.2 mph - 0.00 in Snow Light Snow
11:29 AM 24.8 °F 16.9 °F 21.2 °F 86% 29.75 in 1.0 mi NE 6.9 mph - 0.00 in Snow Light Snow
11:52 AM 24.1 °F 17.0 °F 21.9 °F 91% 29.79 in 1.2 mi Variable 5.8 mph - 0.00 in Snow Light Snow
12:10 PM 24.8 °F 16.9 °F 21.2 °F 86% 29.72 in 1.0 mi NW 6.9 mph - 0.00 in Snow Light Snow
12:45 PM 24.8 °F 16.1 °F 21.2 °F 86% 29.72 in 1.8 mi North 8.1 mph - 0.00 in Snow Light Snow
12:52 PM 24.1 °F 13.7 °F 21.0 °F 88% 29.78 in 1.5 mi North 10.4 mph - 0.00 in Snow Light Snow
1:01 PM 24.8 °F 14.0 °F 21.2 °F 86% 29.73 in 1.0 mi North 11.5 mph 16.1 mph 0.00 in Snow Light Snow
1:08 PM 23.0 °F 11.7 °F 21.2 °F 93% 29.73 in 0.8 mi North 11.5 mph - 0.00 in Snow Light Snow
1:16 PM 23.0 °F 12.4 °F 21.2 °F 93% 29.73 in 1.0 mi North 10.4 mph - 0.00 in Snow Light Snow
1:52 PM 23.0 °F 13.9 °F 19.9 °F 88% 29.79 in 1.5 mi NNW 8.1 mph - 0.00 in Snow Light Snow
2:00 PM 23.0 °F 13.1 °F 19.4 °F 86% 29.73 in 1.2 mi NNW 9.2 mph - 0.00 in Snow Light Snow
2:07 PM 23.0 °F 12.4 °F 19.4 °F 86% 29.74 in 1.5 mi NNW 10.4 mph - 0.00 in Snow Light Snow
2:19 PM 23.0 °F 12.4 °F 19.4 °F 86% 29.74 in 2.0 mi NNW 10.4 mph - 0.00 in Snow Light Snow
2:52 PM 21.9 °F 11.7 °F 19.0 °F 89% 29.81 in 2.0 mi North 9.2 mph - 0.00 in Snow Light Snow
3:19 PM 21.2 °F 13.6 °F 19.4 °F 93% 29.76 in 2.0 mi North 5.8 mph - 0.00 in Snow Light Snow
3:30 PM 21.2 °F 16.4 °F 19.4 °F 93% 29.76 in 1.5 mi North 3.5 mph - 0.00 in Snow Light Snow
3:40 PM 21.2 °F 11.7 °F 21.2 °F 100% 29.76 in 1.5 mi NNW 8.1 mph - 0.00 in Snow Light Snow
3:52 PM 21.9 °F 12.5 °F 19.9 °F 92% 29.82 in 1.8 mi NNW 8.1 mph - 0.00 in Snow Light Snow
4:09 PM 21.2 °F 13.6 °F 19.4 °F 93% 29.77 in 1.2 mi NNW 5.8 mph - 0.00 in Snow Light Snow
4:14 PM 21.2 °F 12.6 °F 19.4 °F 93% 29.77 in 0.8 mi NNW 6.9 mph - 0.00 in Snow Light Snow
4:19 PM 21.2 °F 13.6 °F 19.4 °F 93% 29.78 in 0.8 mi NNW 5.8 mph - 0.00 in Snow Light Snow
4:31 PM 21.2 °F 12.6 °F 19.4 °F 93% 29.78 in 1.2 mi NNW 6.9 mph - 0.00 in Snow Light Snow
4:52 PM 21.0 °F 13.4 °F 19.0 °F 92% 29.85 in 1.5 mi North 5.8 mph - 0.00 in Snow Light Snow
5:52 PM 21.0 °F 16.2 °F 19.0 °F 92% 29.86 in 1.8 mi Variable 3.5 mph - 0.00 in Snow Light Snow
6:15 PM 21.2 °F - 19.4 °F 93% 29.80 in 2.0 mi Calm Calm - 0.00 in Snow Light Snow
6:52 PM 21.0 °F - 19.0 °F 92% 29.86 in 2.0 mi Calm Calm - 0.00 in Snow Light Snow
7:21 PM 19.4 °F - 17.6 °F 93% 29.80 in 2.5 mi Calm Calm - 0.00 in Snow Light Snow
7:52 PM 18.0 °F - 18.0 °F 100% 29.87 in 2.5 mi Calm Calm - 0.00 in Snow Light Snow
8:00 PM 19.4 °F - 17.6 °F 93% 29.81 in 2.5 mi Calm Calm - 0.00 in Snow Light Snow
8:52 PM 19.9 °F - 19.0 °F 96% 29.88 in 2.5 mi Calm Calm - 0.00 in Snow Light Snow
9:52 PM 19.9 °F - 19.0 °F 96% 29.89 in 2.5 mi Calm Calm - 0.00 in Snow Light Snow
10:04 PM 19.4 °F 14.3 °F 17.6 °F 93% 29.83 in 2.5 mi NNW 3.5 mph - 0.00 in Snow Light Snow
10:41 PM 19.4 °F 14.3 °F 17.6 °F 93% 29.83 in 3.0 mi NNW 3.5 mph - 0.00 in Snow Light Snow
10:52 PM 19.0 °F - 17.1 °F 92% 29.90 in 4.0 mi Calm Calm - 0.00 in Snow Light Snow
11:52 PM 17.1 °F - 12.9 °F 84% 29.91 in 4.0 mi Calm Calm - 0.00 in Snow Light Snow